Weather History for Albert Lea, MN

Change the Weather History Date:

Wednesday, March 5, 2014

  Actual Average Record
Temperature  
Mean Temperature 14 °F -  
Max Temperature 19 °F 28 °F 46 °F (2009)
Min Temperature 8 °F 14 °F -7 °F (2003)
Degree Days  
Heating Degree Days 52    
Moisture  
Dew Point 11 °F    
Average Humidity 83    
Maximum Humidity 93    
Minimum Humidity 73    
Precipitation  
Precipitation 0.02 in - - ()
Sea Level Pressure  
Sea Level Pressure 30.32 in    
Wind  
Wind Speed 9 mph (East)    
Max Wind Speed 16 mph    
Max Gust Speed 22 mph    
Visibility 8 miles    
Events Snow    
Averages and records for this station are not official NWS values.
T = Trace of Precipitation, MM = Missing Value Source: NWS Daily Summary

Daily Weather History Graph

Daily Weather History Graph

Search for Another Location

Airport:

Trip Planner

Search our weather history database for the weather conditions in past years. The results will help you decide how hot, cold, wet, or windy it might be!

Date:

Astronomy

Mar. 05, 2014 Rise Set
Actual Time 6:43 AM CST 6:07 PM CST
Civil Twilight 6:14 AM CST 6:36 PM CST
Nautical Twilight 5:41 AM CST 7:09 PM CST
Astronomical Twilight 5:08 AM CST 7:42 PM CST
Moon 8:59 AM CST (3/5) 11:26 PM CST (3/5)
Length of Visible Light 12h 21m
Length of Day
11h 24m
Waxing Crescent, 23% of the Moon is Illuminated
Mar 5
Waxing Crescent
Mar 8
First Quarter
Mar 16
Full
Mar 23
Last Quarter
Mar 30
New

Hourly Weather History & Observations

Time (CST) Temp. Windchill Dew Point Humidity Pressure Visibility Wind Dir Wind Speed Gust Speed Precip Events Conditions
12:11 AM 15.8 °F 5.1 °F 14.0 °F 93% 30.23 in 0.8 mi ENE 8.1 mph - 0.01 in Snow Snow
12:31 AM 15.8 °F 6.1 °F 14.0 °F 93% 30.23 in 0.5 mi ENE 6.9 mph - 0.02 in Snow Heavy Snow
12:51 AM 15.8 °F 5.1 °F 14.0 °F 93% 30.24 in 0.8 mi ENE 8.1 mph - N/A Snow Snow
1:11 AM 15.8 °F 3.4 °F 12.2 °F 86% 30.23 in 0.8 mi ENE 10.4 mph - 0.01 in Snow Snow
1:31 AM 15.8 °F 3.4 °F 12.2 °F 86% 30.22 in 1.2 mi ENE 10.4 mph - 0.02 in Snow Light Snow
1:51 AM 15.8 °F 3.4 °F 12.2 °F 86% 30.23 in 2.5 mi ENE 10.4 mph - N/A Snow Light Snow
2:11 AM 15.8 °F 3.4 °F 12.2 °F 86% 30.24 in 2.0 mi ENE 10.4 mph - N/A Snow Light Snow
2:31 AM 15.8 °F 3.4 °F 12.2 °F 86% 30.23 in 1.5 mi ENE 10.4 mph - N/A Snow Light Snow
2:51 AM 15.8 °F 2.7 °F 12.2 °F 86% 30.24 in 2.0 mi ENE 11.5 mph - N/A Snow Light Snow
3:11 AM 15.8 °F 3.4 °F 12.2 °F 86% 30.24 in 2.5 mi ENE 10.4 mph - N/A Snow Light Snow
3:31 AM 15.8 °F 4.2 °F 12.2 °F 86% 30.25 in 2.5 mi ENE 9.2 mph - N/A Snow Light Snow
3:51 AM 15.8 °F 4.2 °F 12.2 °F 86% 30.25 in 2.0 mi ENE 9.2 mph - N/A Snow Light Snow
4:11 AM 15.8 °F 4.2 °F 12.2 °F 86% 30.27 in 3.0 mi ENE 9.2 mph - N/A Snow Light Snow
4:31 AM 15.8 °F 4.2 °F 12.2 °F 86% 30.26 in 4.0 mi East 9.2 mph - N/A Snow Light Snow
4:51 AM 14.0 °F 2.0 °F 10.4 °F 86% 30.26 in 7.0 mi ENE 9.2 mph - N/A Snow Light Snow
5:11 AM 12.2 °F 1.7 °F 10.4 °F 92% 30.27 in 7.0 mi East 6.9 mph - N/A   Overcast
5:31 AM 12.2 °F 1.7 °F 8.6 °F 85% 30.27 in 7.0 mi ENE 6.9 mph - N/A   Overcast
5:51 AM 10.4 °F -2.4 °F 8.6 °F 92% 30.28 in 10.0 mi ENE 9.2 mph - N/A   Overcast
6:11 AM 10.4 °F -0.4 °F 6.8 °F 85% 30.28 in 10.0 mi ENE 6.9 mph - N/A   Scattered Clouds
6:31 AM 10.4 °F 2.2 °F 8.6 °F 92% 30.29 in 10.0 mi ENE 4.6 mph - N/A   Clear
6:51 AM 8.6 °F -2.6 °F 6.8 °F 92% 30.30 in 7.0 mi ENE 6.9 mph - N/A   Clear
7:11 AM 8.6 °F -2.6 °F 6.8 °F 92% 30.31 in 7.0 mi ENE 6.9 mph - N/A   Clear
7:31 AM 8.6 °F -3.7 °F 6.8 °F 92% 30.32 in 7.0 mi ENE 8.1 mph - N/A   Clear
7:51 AM 8.6 °F -2.6 °F 6.8 °F 92% 30.33 in 7.0 mi ENE 6.9 mph - N/A   Clear
8:11 AM 10.4 °F -1.5 °F 6.8 °F 85% 30.33 in 7.0 mi ENE 8.1 mph - N/A   Clear
8:31 AM 10.4 °F -2.4 °F 8.6 °F 92% 30.33 in 10.0 mi ENE 9.2 mph - N/A   Clear
8:51 AM 10.4 °F -2.4 °F 8.6 °F 92% 30.34 in 10.0 mi ENE 9.2 mph - N/A   Clear
9:11 AM 10.4 °F -2.4 °F 8.6 °F 92% 30.35 in 10.0 mi ENE 9.2 mph - N/A   Clear
9:31 AM 12.2 °F -0.2 °F 10.4 °F 92% 30.35 in 10.0 mi ENE 9.2 mph - N/A   Clear
9:51 AM 14.0 °F 2.9 °F 10.4 °F 86% 30.36 in 10.0 mi East 8.1 mph - N/A   Clear
10:11 AM 15.8 °F 4.2 °F 10.4 °F 79% 30.36 in 10.0 mi East 9.2 mph - N/A   Scattered Clouds
10:31 AM 15.8 °F 2.7 °F 10.4 °F 79% 30.37 in 7.0 mi East 11.5 mph - N/A   Clear
10:51 AM 17.6 °F 4.3 °F 10.4 °F 73% 30.37 in 7.0 mi ESE 12.7 mph - N/A   Clear
11:11 AM 17.6 °F 5.0 °F 10.4 °F 73% 30.37 in 10.0 mi ESE 11.5 mph - N/A   Clear
11:31 AM 17.6 °F 2.7 °F 12.2 °F 79% 30.38 in 7.0 mi ESE 16.1 mph - N/A   Clear
11:51 AM 17.6 °F 3.7 °F 12.2 °F 79% 30.38 in 10.0 mi ESE 13.8 mph - N/A   Clear
12:11 PM 17.6 °F 3.7 °F 12.2 °F 79% 30.38 in 10.0 mi ESE 13.8 mph - N/A   Scattered Clouds
12:31 PM 17.6 °F 3.2 °F 12.2 °F 79% 30.37 in 10.0 mi ESE 15.0 mph 18.4 mph N/A   Mostly Cloudy
12:51 PM 17.6 °F 4.3 °F 12.2 °F 79% 30.37 in 10.0 mi East 12.7 mph - N/A   Overcast
1:11 PM 17.6 °F 3.7 °F 12.2 °F 79% 30.36 in 10.0 mi ESE 13.8 mph - N/A   Mostly Cloudy
1:31 PM 17.6 °F 4.3 °F 12.2 °F 79% 30.35 in 10.0 mi ESE 12.7 mph - N/A   Overcast
1:51 PM 19.4 °F 6.0 °F 12.2 °F 74% 30.35 in 5.0 mi ESE 13.8 mph - N/A   Haze
2:11 PM 19.4 °F 6.6 °F 12.2 °F 74% 30.35 in 10.0 mi ESE 12.7 mph - N/A   Mostly Cloudy
2:31 PM 19.4 °F 6.0 °F 12.2 °F 74% 30.35 in 10.0 mi ESE 13.8 mph - N/A   Mostly Cloudy
2:51 PM 19.4 °F 6.0 °F 12.2 °F 74% 30.35 in 10.0 mi ESE 13.8 mph - N/A   Mostly Cloudy
3:11 PM 19.4 °F 6.6 °F 12.2 °F 74% 30.35 in 10.0 mi ESE 12.7 mph - N/A   Mostly Cloudy
3:31 PM 19.4 °F 7.9 °F 12.2 °F 74% 30.36 in 10.0 mi ESE 10.4 mph - N/A   Mostly Cloudy
3:51 PM 19.4 °F 8.6 °F 12.2 °F 74% 30.36 in 10.0 mi ESE 9.2 mph - N/A   Mostly Cloudy
4:11 PM 17.6 °F 6.4 °F 12.2 °F 79% 30.36 in 10.0 mi East 9.2 mph - N/A   Scattered Clouds
4:31 PM 17.6 °F 6.4 °F 12.2 °F 79% 30.36 in 10.0 mi ESE 9.2 mph - N/A   Clear
4:50 PM 19.4 °F 8.6 °F 12.2 °F 74% 30.35 in 10.0 mi ESE 9.2 mph - N/A   Clear
5:11 PM 17.6 °F 7.3 °F 12.2 °F 79% 30.35 in 10.0 mi ESE 8.1 mph - N/A   Clear
5:31 PM 17.6 °F 7.3 °F 10.4 °F 73% 30.35 in 10.0 mi ESE 8.1 mph - N/A   Clear
5:51 PM 15.8 °F 6.1 °F 10.4 °F 79% 30.34 in 10.0 mi SE 6.9 mph - N/A   Clear
6:11 PM 15.8 °F 6.1 °F 10.4 °F 79% 30.34 in 10.0 mi ESE 6.9 mph - N/A   Clear
6:31 PM 15.8 °F 7.2 °F 10.4 °F 79% 30.35 in 10.0 mi SE 5.8 mph - N/A   Clear
6:51 PM 14.0 °F 5.1 °F 8.6 °F 79% 30.34 in 10.0 mi SE 5.8 mph - N/A   Clear
7:11 PM 12.2 °F 2.9 °F 8.6 °F 85% 30.35 in 10.0 mi SE 5.8 mph - N/A   Clear
7:31 PM 12.2 °F 4.3 °F 8.6 °F 85% 30.36 in 10.0 mi SE 4.6 mph - N/A   Clear
7:51 PM 12.2 °F 2.9 °F 8.6 °F 85% 30.34 in 10.0 mi SE 5.8 mph - N/A   Clear
8:11 PM 10.4 °F -0.4 °F 6.8 °F 85% 30.33 in 10.0 mi SE 6.9 mph - N/A   Clear
8:30 PM 10.4 °F 2.2 °F 6.8 °F 85% 30.33 in 10.0 mi SE 4.6 mph - N/A   Scattered Clouds
8:51 PM 12.2 °F 2.9 °F 10.4 °F 92% 30.34 in 10.0 mi SE 5.8 mph - N/A   Overcast
9:11 PM 15.8 °F 3.4 °F 10.4 °F 79% 30.33 in 10.0 mi SE 10.4 mph - N/A   Overcast
9:31 PM 17.6 °F 5.0 °F 10.4 °F 73% 30.32 in 10.0 mi SE 11.5 mph - N/A   Overcast
9:51 PM 17.6 °F 5.0 °F 10.4 °F 73% 30.32 in 10.0 mi SE 11.5 mph - N/A   Overcast
10:11 PM 15.8 °F 3.4 °F 10.4 °F 79% 30.33 in 10.0 mi SE 10.4 mph - N/A   Mostly Cloudy
10:31 PM 15.8 °F 4.2 °F 10.4 °F 79% 30.32 in 10.0 mi SSE 9.2 mph - N/A   Clear
10:51 PM 15.8 °F 3.4 °F 10.4 °F 79% 30.31 in 10.0 mi SSE 10.4 mph - N/A   Clear
11:10 PM 15.8 °F 3.4 °F 10.4 °F 79% 30.31 in 10.0 mi SSE 10.4 mph - N/A   Clear
11:31 PM 15.8 °F 0.9 °F 10.4 °F 79% 30.29 in 10.0 mi SE 15.0 mph - N/A   Clear
11:51 PM 15.8 °F 1.4 °F 10.4 °F 79% 30.30 in 10.0 mi SSE 13.8 mph 21.9 mph N/A   Clear